Time,TemperatureF,DewpointF,PressureIn,WindDirection,WindDirectionDegrees,WindSpeedMPH,WindSpeedGustMPH,Humidity,HourlyPrecipIn,Conditions,Clouds,dailyrainin,SoftwareType,DateUTC
2014-10-20 00:22:00,46.0,41.0,30.00,South,190,0.0,2.0,83,0.00,,,0.00,,2014-10-20 04:22:00,
2014-10-20 00:52:00,46.0,42.0,30.00,South,190,0.0,0.0,86,0.00,,,0.00,,2014-10-20 04:52:00,
2014-10-20 01:22:00,45.0,41.0,30.00,South,190,0.0,0.0,87,0.00,,,0.00,,2014-10-20 05:22:00,
2014-10-20 01:52:00,45.0,41.0,30.00,South,190,0.0,1.0,87,0.00,,,0.00,,2014-10-20 05:52:00,
2014-10-20 02:22:00,45.0,41.0,30.00,South,190,0.0,0.0,87,0.00,,,0.00,,2014-10-20 06:22:00,
2014-10-20 02:53:00,45.0,42.0,29.99,South,190,0.0,1.0,88,0.00,,,0.00,,2014-10-20 06:53:00,
2014-10-20 03:22:00,44.0,41.0,29.99,South,190,0.0,0.0,90,0.00,,,0.00,,2014-10-20 07:22:00,
2014-10-20 03:52:00,44.0,42.0,29.99,South,190,0.0,0.0,91,0.00,,,0.00,,2014-10-20 07:52:00,
2014-10-20 04:22:00,45.0,43.0,29.98,South,190,0.0,0.0,92,0.00,,,0.00,,2014-10-20 08:22:00,
2014-10-20 04:42:00,45.0,43.0,29.98,South,190,0.0,0.0,91,0.00,,,0.00,,2014-10-20 08:42:00,
2014-10-20 04:52:00,45.0,43.0,29.97,South,190,0.0,2.0,91,0.00,,,0.00,,2014-10-20 08:52:00,
2014-10-20 05:12:00,45.0,43.0,29.97,South,190,0.0,1.0,91,0.00,,,0.00,,2014-10-20 09:12:00,
2014-10-20 05:23:00,45.0,43.0,29.97,South,190,0.0,0.0,91,0.00,,,0.00,,2014-10-20 09:23:00,
2014-10-20 05:54:00,45.0,43.0,29.96,South,190,0.0,0.0,92,0.00,,,0.00,,2014-10-20 09:54:00,
2014-10-20 06:24:00,45.0,43.0,29.95,South,190,0.0,1.0,91,0.00,,,0.00,,2014-10-20 10:24:00,
2014-10-20 06:54:00,46.0,44.0,29.95,South,190,0.0,1.0,91,0.00,,,0.00,,2014-10-20 10:54:00,
2014-10-20 07:13:00,46.0,44.0,29.95,South,190,0.0,2.0,91,0.00,,,0.00,,2014-10-20 11:13:00,
2014-10-20 07:23:00,46.0,44.0,29.96,South,190,1.0,2.0,91,0.00,,,0.00,,2014-10-20 11:23:00,
2014-10-20 07:42:00,47.0,44.0,29.95,South,190,0.0,4.0,90,0.00,,,0.00,,2014-10-20 11:42:00,
2014-10-20 07:52:00,47.0,44.0,29.95,South,190,1.0,3.0,90,0.00,,,0.00,,2014-10-20 11:52:00,
2014-10-20 08:22:00,47.0,44.0,29.94,South,190,1.0,3.0,90,0.00,,,0.00,,2014-10-20 12:22:00,
2014-10-20 08:42:00,48.0,45.0,29.94,SSW,194,0.0,5.0,89,0.00,,,0.00,,2014-10-20 12:42:00,
2014-10-20 08:52:00,48.0,45.0,29.94,SSW,194,0.0,4.0,89,0.00,,,0.00,,2014-10-20 12:52:00,
2014-10-20 09:22:00,48.0,45.0,29.95,SSW,209,2.0,4.0,88,0.00,,,0.00,,2014-10-20 13:22:00,
2014-10-20 09:42:00,48.0,45.0,29.94,SSW,211,1.0,5.0,88,0.00,,,0.00,,2014-10-20 13:42:00,
2014-10-20 09:53:00,49.0,46.0,29.94,SW,219,3.0,6.0,88,0.00,,,0.00,,2014-10-20 13:53:00,
2014-10-20 10:12:00,50.0,47.0,29.93,SW,219,0.0,4.0,88,0.00,,,0.00,,2014-10-20 14:12:00,
2014-10-20 10:22:00,50.0,46.0,29.93,SW,214,2.0,5.0,87,0.00,,,0.00,,2014-10-20 14:22:00,
2014-10-20 10:42:00,52.0,48.0,29.91,SSW,213,4.0,5.0,86,0.00,,,0.00,,2014-10-20 14:42:00,
2014-10-20 10:52:00,53.0,48.0,29.91,South,171,4.0,6.0,83,0.00,,,0.00,,2014-10-20 14:52:00,
2014-10-20 11:22:00,56.0,49.0,29.90,SW,231,4.0,8.0,78,0.00,,,0.00,,2014-10-20 15:22:00,
2014-10-20 11:43:00,56.0,50.0,29.90,SSW,201,2.0,8.0,80,0.00,,,0.00,,2014-10-20 15:43:00,
2014-10-20 11:54:00,57.0,51.0,29.90,WSW,238,1.0,6.0,79,0.00,,,0.00,,2014-10-20 15:54:00,
2014-10-20 12:23:00,58.0,51.0,29.89,SSW,205,2.0,7.0,77,0.00,,,0.00,,2014-10-20 16:23:00,
2014-10-20 12:43:00,59.0,51.0,29.88,SSW,211,6.0,9.0,75,0.00,,,0.00,,2014-10-20 16:43:00,
2014-10-20 12:53:00,58.0,50.0,29.87,SW,216,3.0,11.0,74,0.00,,,0.00,,2014-10-20 16:53:00,
2014-10-20 13:23:00,59.0,50.0,29.86,SSE,150,3.0,12.0,71,0.00,,,0.00,,2014-10-20 17:23:00,
2014-10-20 13:54:00,60.0,49.0,29.83,SW,232,5.0,11.0,67,0.00,,,0.00,,2014-10-20 17:54:00,
2014-10-20 14:13:00,60.0,51.0,29.83,SSE,153,3.0,8.0,71,0.00,,,0.00,,2014-10-20 18:13:00,
2014-10-20 14:22:00,59.0,50.0,29.82,SW,235,5.0,7.0,71,0.00,,,0.00,,2014-10-20 18:22:00,
2014-10-20 14:52:00,60.0,51.0,29.80,South,184,3.0,13.0,72,0.00,,,0.00,,2014-10-20 18:52:00,